CAPE
763 929 1098 1088 1195 993 1124 976 805 662 504 483 507 423 421 395 360 397 403 464 386 322 355 538 462 495 590 675 740 874 741 909 1095 1032 973 1094 1095 930 795 644 708 804
1072 982 1141 1097 1118 977 946 827 666 523 557 546 567 527 479 451 443 395 393 370 357 397 310 306 458 507 568 580 612 656 748 948 1057 1048 1119 1078 1125 1062 994 745 743 772
1156 1047 1078 1061 1003 859 818 694 631 622 569 492 584 586 493 485 414 281 275 268 227 238 243 216 287 427 436 378 423 610 682 836 910 1005 1026 1074 1077 1110 1119 861 799 819
1108 1092 996 960 917 821 756 596 736 483 289 294 435 467 320 222 262 224 169 134 10 149 344 339 286 349 327 306 467 488 587 628 617 862 1059 1134 1157 1119 1075 992 940 801
1076 1058 955 813 805 759 637 455 830 475 323 340 271 253 234 184 146 190 19 0 9 232 256 225 260 330 261 314 453 571 550 378 468 582 864 1056 1113 982 939 991 907 836
1026 929 640 613 721 643 407 543 660 315 373 372 259 258 232 157 70 56 6 4 12 90 118 88 257 230 272 342 253 298 288 376 593 624 576 733 926 744 984 1059 827 840
834 835 548 568 614 313 501 674 469 295 253 301 254 222 227 162 40 33 1 0 0 26 62 129 47 227 238 263 282 307 307 330 411 618 665 620 764 871 1046 998 836 569
824 640 660 654 537 606 630 427 464 271 265 260 263 240 188 160 30 29 3 0 0 0 36 64 156 38 49 44 110 280 304 106 302 420 600 689 768 816 906 871 760 665
735 632 577 574 726 641 547 462 367 334 309 295 217 178 202 82 68 85 52 1 0 0 24 28 27 14 13 13 0 0 26 122 50 216 401 542 560 581 707 791 683 581
883 570 651 670 692 490 356 346 370 323 314 308 249 225 284 245 110 114 102 7 0 0 19 33 27 18 14 0 0 0 0 6 50 413 502 553 473 592 680 649 616 520
543 450 535 397 336 424 398 312 363 339 317 245 244 251 240 224 149 157 125 0 0 0 3 6 2 2 0 0 2 0 0 4 35 324 464 545 478 483 556 642 749 734
396 492 375 286 283 380 358 373 320 266 238 191 186 209 204 229 214 187 99 0 0 0 0 1 0 0 0 0 0 0 0 3 9 375 426 457 513 526 544 522 579 666
409 417 380 113 156 280 256 270 198 211 241 183 180 165 181 166 167 149 8 0 0 0 0 0 0 0 0 0 0 0 1 138 10 6 23 294 473 432 468 470 336 297
363 373 345 233 186 144 218 225 204 218 181 149 148 130 102 99 156 111 0 0 0 0 0 0 0 0 0 0 0 0 0 0 2 0 9 34 280 387 408 490 448 164
420 280 264 210 157 155 160 143 156 139 96 54 43 71 78 134 117 6 0 0 0 0 0 0 0 0 0 0 0 0 0 0 0 0 0 5 17 164 331 322 270 125
391 203 162 84 32 46 55 120 97 98 42 34 44 58 67 69 54 0 0 0 0 0 0 0 0 0 0 0 0 0 0 4 0 0 0 0 0 0 0 0 7 184
271 236 218 230 170 94 66 5 0 1 0 8 23 10 3 2 0 0 0 0 0 0 0 0 0 0 0 0 0 0 0 0 0 0 0 0 0 0 0 0 0 6
184 176 241 186 168 45 0 0 0 2 12 32 48 33 10 0 0 0 0 0 0 0 0 0 0 0 0 0 0 0 0 0 0 1 3 5 0 0 0 0 0 0
213 297 206 51 7 15 0 0 2 14 22 25 48 27 20 0 0 0 0 0 0 0 0 0 0 0 0 0 0 0 0 0 0 0 0 0 0 1 0 0 0 0
218 222 204 72 29 10 7 0 0 1 2 5 14 16 16 12 0 0 0 0 0 0 0 0 0 0 0 0 0 0 0 124 146 30 10 8 6 10 13 8 0 0
178 171 78 64 15 8 5 0 0 0 0 0 0 0 0 0 0 0 0 0 0 0 0 0 0 0 0 0 0 0 33 256 196 40 11 20 14 8 8 11 10 20
128 118 136 47 20 6 3 0 0 0 30 0 0 0 0 0 0 0 0 0 0 0 0 0 0 0 0 0 0 36 162 188 160 116 104 97 78 0 88 33 20 38
107 80 75 35 20 2 0 22 36 36 24 0 0 0 0 0 0 0 0 0 0 0 0 0 0 0 0 0 0 54 90 122 124 112 145 130 128 133 127 113 95 98
48 83 67 68 28 12 18 23 23 3 0 0 0 0 0 0 0 0 0 0 0 0 0 0 0 0 0 0 0 30 82 119 98 85 92 102 107 114 120 132 128 137
8 11 31 46 44 29 27 24 19 5 0 0 0 0 0 0 0 0 0 0 0 0 0 0 0 0 0 0 0 0 58 82 80 68 55 49 47 74 69 91 97 90
22 15 18 23 18 24 20 17 8 3 5 4 3 1 0 0 0 0 0 1 0 0 0 0 0 0 0 0 0 0 2 44 55 51 0 0 0 0 35 38 2 2
Wind_Speed
17 15 14 16 17 18 17 17 19 20 19 19 19 19 19 18 19 20 20 22 22 22 21 20 18 17 16 14 13 12 10 10 10 11 11 12 13 14 14 13 13 14
20 17 15 14 15 15 13 13 15 18 18 18 18 18 17 18 19 21 22 23 24 23 22 21 20 18 16 14 12 13 12 12 12 11 12 12 11 12 12 12 12 14
24 21 17 14 14 13 11 11 14 16 17 18 19 19 18 19 21 22 23 25 26 25 23 21 20 19 17 13 13 13 13 13 13 13 13 12 11 11 11 13 14 15
25 23 19 16 14 13 12 13 15 15 18 20 19 18 19 20 22 23 24 26 nan 25 23 22 19 19 16 15 15 13 13 14 14 14 13 12 11 13 14 15 17 18
23 22 22 18 14 13 14 13 13 15 19 21 19 19 20 21 23 24 nan nan nan 24 23 21 21 20 17 17 17 15 14 15 15 15 15 13 13 15 15 18 18 18
21 24 19 13 12 16 14 14 12 16 22 24 21 21 21 21 nan nan nan nan nan nan 22 nan 20 19 18 18 18 17 16 16 16 16 15 14 14 14 16 17 17 17
22 21 11 10 13 12 14 15 15 18 23 25 25 23 22 22 nan nan nan nan nan nan nan 19 nan 19 18 18 18 17 16 15 15 16 15 14 14 14 15 16 17 17
19 23 14 13 13 15 17 17 19 20 23 27 26 23 22 21 nan nan nan nan nan nan nan nan 19 nan nan nan 18 17 16 15 16 16 16 15 15 15 15 16 18 19
19 21 17 14 16 17 18 18 21 21 24 27 25 21 21 nan nan nan nan nan nan nan nan nan nan nan nan nan nan nan nan 18 nan 19 17 16 16 17 17 18 19 20
20 19 16 16 18 18 16 15 17 20 24 26 24 22 23 22 23 23 23 nan nan nan nan nan nan nan nan nan nan nan nan nan nan 19 18 18 18 19 19 20 20 20
17 21 18 14 14 17 15 14 16 22 23 24 23 24 24 24 25 26 26 nan nan nan nan nan nan nan nan nan nan nan nan nan nan 19 19 19 19 19 20 20 20 20
17 20 19 16 12 17 15 15 19 24 23 23 24 25 26 25 26 26 nan nan nan nan nan nan nan nan nan nan nan nan nan nan nan 21 20 18 20 20 20 20 19 18
19 18 17 15 12 18 18 18 21 23 24 23 24 26 27 25 26 25 nan nan nan nan nan nan nan nan nan nan nan nan nan 22 nan nan nan 19 20 20 21 21 20 19
20 23 22 16 15 21 22 19 20 22 23 24 24 26 26 nan 22 23 nan nan nan nan nan nan nan nan nan nan nan nan nan nan nan nan nan nan 20 20 21 21 22 22
22 23 21 16 15 22 21 19 19 21 nan nan nan nan nan 23 23 nan nan nan nan nan nan nan nan nan nan nan nan nan nan nan nan nan nan nan nan 24 24 25 25 24
26 23 21 nan nan nan nan 17 nan nan nan nan nan nan nan nan nan nan nan nan nan nan nan nan nan nan nan nan nan nan nan nan nan nan nan nan nan nan nan nan nan 27
27 24 22 21 18 nan nan nan nan nan nan nan nan nan nan nan nan nan nan nan nan nan nan nan nan nan nan nan nan nan nan nan nan nan nan nan nan nan nan nan nan nan
21 24 24 24 22 nan nan nan nan nan nan nan nan nan nan nan nan nan nan nan nan nan nan nan nan nan nan nan nan nan nan nan nan nan nan nan nan nan nan nan nan nan
23 24 24 nan nan nan nan nan nan nan nan nan nan nan nan nan nan nan nan nan nan nan nan nan nan nan nan nan nan nan nan nan nan nan nan nan nan nan nan nan nan nan
25 25 27 nan nan nan nan nan nan nan nan nan nan nan nan nan nan nan nan nan nan nan nan nan nan nan nan nan nan nan nan 30 29 nan nan nan nan nan nan nan nan nan
25 25 nan nan nan nan nan nan nan nan nan nan nan nan nan nan nan nan nan nan nan nan nan nan nan nan nan nan nan nan nan 32 33 nan nan nan nan nan nan nan nan nan
23 24 26 nan nan nan nan nan nan nan nan nan nan nan nan nan nan nan nan nan nan nan nan nan nan nan nan nan nan nan 33 35 35 36 36 nan nan nan nan nan nan nan
21 nan nan nan nan nan nan nan nan nan nan nan nan nan nan nan nan nan nan nan nan nan nan nan nan nan nan nan nan nan nan 36 36 36 37 39 38 36 36 37 nan nan
nan nan nan nan nan nan nan nan nan nan nan nan nan nan nan nan nan nan nan nan nan nan nan nan nan nan nan nan nan nan nan 38 nan nan nan 40 38 36 37 38 38 40
nan nan nan nan nan nan nan nan nan nan nan nan nan nan nan nan nan nan nan nan nan nan nan nan nan nan nan nan nan nan nan nan nan nan nan nan nan nan nan nan nan nan
nan nan nan nan nan nan nan nan nan nan nan nan nan nan nan nan nan nan nan nan nan nan nan nan nan nan nan nan nan nan nan nan nan nan nan nan nan nan nan nan nan nan
Wind_Direction
267 268 280 288 282 289 299 276 251 253 254 253 254 250 250 253 258 261 259 256 260 260 258 262 262 259 255 247 245 243 254 264 267 271 278 281 284 287 288 287 279 283
259 260 261 269 269 272 284 277 252 250 251 246 243 242 244 251 255 256 255 257 256 257 257 257 258 257 251 246 244 251 254 263 269 268 278 282 288 290 291 290 286 281
253 254 253 261 265 262 265 264 253 246 247 239 236 242 246 246 253 253 255 254 254 254 254 252 250 253 254 249 247 254 260 262 268 268 270 277 277 279 281 281 281 284
247 245 242 242 247 249 244 251 248 247 240 231 233 243 246 247 250 252 252 255 nan 249 248 248 247 245 248 249 250 256 260 267 270 268 266 263 266 273 275 273 273 277
244 240 235 234 238 239 237 240 242 249 239 229 233 243 247 249 249 250 nan nan nan 247 246 244 240 243 246 245 250 257 257 267 270 270 271 271 268 269 272 273 273 275
244 245 229 228 238 239 229 234 235 245 239 232 238 246 247 248 nan nan nan nan nan nan 243 nan 245 245 242 246 251 252 258 267 272 273 273 273 269 268 270 270 272 274
261 264 265 250 247 250 240 237 234 240 238 237 240 247 248 246 nan nan nan nan nan nan nan 241 nan 243 247 251 252 255 259 266 270 275 277 275 276 273 266 268 271 270
270 271 272 260 259 259 256 248 243 240 237 238 244 247 246 248 nan nan nan nan nan nan nan nan 244 nan nan nan 257 259 264 266 268 274 275 280 278 278 276 271 269 271
264 268 258 262 267 265 263 252 238 232 234 239 244 245 242 nan nan nan nan nan nan nan nan nan nan nan nan nan nan nan nan 258 nan 272 275 279 278 283 283 276 273 275
259 253 253 260 267 264 264 250 238 228 231 238 241 241 239 237 242 241 244 nan nan nan nan nan nan nan nan nan nan nan nan nan nan 268 271 275 280 282 283 281 282 281
269 260 258 266 261 260 257 243 223 232 234 240 240 239 238 242 237 238 243 nan nan nan nan nan nan nan nan nan nan nan nan nan nan 265 270 272 275 281 282 282 282 287
273 258 250 233 244 260 248 221 226 235 237 238 241 244 245 245 240 237 nan nan nan nan nan nan nan nan nan nan nan nan nan nan nan 266 268 268 271 274 279 280 283 285
265 247 252 236 227 252 242 229 231 236 241 243 244 246 246 245 238 242 nan nan nan nan nan nan nan nan nan nan nan nan nan 260 nan nan nan 272 272 275 276 277 280 282
255 231 226 229 246 249 241 237 239 240 241 244 247 248 246 nan 238 247 nan nan nan nan nan nan nan nan nan nan nan nan nan nan nan nan nan nan 274 274 275 276 274 273
250 243 242 221 233 241 238 235 241 240 nan nan nan nan nan 237 239 nan nan nan nan nan nan nan nan nan nan nan nan nan nan nan nan nan nan nan nan 265 267 269 269 271
243 237 241 nan nan nan nan 240 nan nan nan nan nan nan nan nan nan nan nan nan nan nan nan nan nan nan nan nan nan nan nan nan nan nan nan nan nan nan nan nan nan 270
230 220 215 225 229 nan nan nan nan nan nan nan nan nan nan nan nan nan nan nan nan nan nan nan nan nan nan nan nan nan nan nan nan nan nan nan nan nan nan nan nan nan
228 222 217 217 212 nan nan nan nan nan nan nan nan nan nan nan nan nan nan nan nan nan nan nan nan nan nan nan nan nan nan nan nan nan nan nan nan nan nan nan nan nan
249 240 234 nan nan nan nan nan nan nan nan nan nan nan nan nan nan nan nan nan nan nan nan nan nan nan nan nan nan nan nan nan nan nan nan nan nan nan nan nan nan nan
254 248 239 nan nan nan nan nan nan nan nan nan nan nan nan nan nan nan nan nan nan nan nan nan nan nan nan nan nan nan nan 254 256 nan nan nan nan nan nan nan nan nan
251 247 nan nan nan nan nan nan nan nan nan nan nan nan nan nan nan nan nan nan nan nan nan nan nan nan nan nan nan nan nan 259 256 nan nan nan nan nan nan nan nan nan
252 251 249 nan nan nan nan nan nan nan nan nan nan nan nan nan nan nan nan nan nan nan nan nan nan nan nan nan nan nan 246 254 256 262 264 nan nan nan nan nan nan nan
240 nan nan nan nan nan nan nan nan nan nan nan nan nan nan nan nan nan nan nan nan nan nan nan nan nan nan nan nan nan nan 253 258 260 261 262 262 263 262 262 nan nan
nan nan nan nan nan nan nan nan nan nan nan nan nan nan nan nan nan nan nan nan nan nan nan nan nan nan nan nan nan nan nan 258 nan nan nan 261 261 258 260 261 257 255
nan nan nan nan nan nan nan nan nan nan nan nan nan nan nan nan nan nan nan nan nan nan nan nan nan nan nan nan nan nan nan nan nan nan nan nan nan nan nan nan nan nan
nan nan nan nan nan nan nan nan nan nan nan nan nan nan nan nan nan nan nan nan nan nan nan nan nan nan nan nan nan nan nan nan nan nan nan nan nan nan nan nan nan nan